Volver al catálogo

STARLINK-36655

ActivoComunicacionesVLEO
NORAD 67834·PAYLOAD·🇺🇸 United States

Lanzado Feb 16, 2026 desde Vandenberg Space Force Base

Loading…

Próximos Pases (próximas 24 horas)

TLE

ActualizadoSource: CelesTrak SupGP

Época: Sep 15, 2026, 03:42 UTC

1 67834C 26033P   26258.15465278 -.00017683  00000+0 -64054-3 0  2589
2 67834  42.9995 276.7058 0001433 265.6910 115.7913 15.27584759    14

Sigue STARLINK-36655 en tiempo real con AllMySat

Download on the App Store